Regional Weather Roundup
Issued by NWS Albany, NY

Home | Current Version | Previous Version | Graphics & Text | Print | Product List | Glossary Off
Versions: 1 2 3 4 5 6 7 8 9 10 11 12 13 14 15 16 17 18 19 20 21 22 23 24 25 26 27 28 29 30 31 32 33 34 35 36 37 38 39 40 41 42 43 44 45 46 47 48 49 50

000
ASUS41 KALY 121710
RWRALY

NEW YORK STATE HOURLY WEATHER ROUNDUP
NATIONAL WEATHER SERVICE ALBANY NY
1200 PM EST FRI FEB 12 2016

NOTE: "FAIR" INDICATES FEW OR NO CLOUDS BELOW 12,000 FEET WITH NO
SIGNIFICANT WEATHER AND/OR NO OBSTRUCTIONS TO VISIBILITY.

NYZ032-033-038>043-046>054-057>066-NYZ062>081-121800-
EAST


CITY           SKY/WX    TMP DP  RH WIND       PRES   REMARKS
ALBANY         CLOUDY    20   4  50 S8        30.10F WCI  10
GLENS FALLS    CLOUDY    17   2  51 S9        30.06F WCI   6
POUGHKEEPSIE   MOSUNNY   23   0  36 VRB7      30.15F WCI  15
NEWBURGH       PTSUNNY   21   3  45 SW8       30.13F WCI  12
MONTGOMERY     CLOUDY    23   1  38 SW8       30.11F WCI  14
WHITE PLAINS   SUNNY     22  -1  36 VRB6      30.14F WCI  14
ISLIP          PTSUNNY   24   2  38 W7        30.18F WCI  16
NEW YORK CITY  PTSUNNY   25  -1  32 SW8       30.19F WCI  16
CENTRAL PARK   SUNNY     25  -1  32 NW7       30.20F WCI  17
$$

NYZ005>009-017-018-044>046-055-056-121800-
CENTRAL


CITY           SKY/WX    TMP DP  RH WIND       PRES   REMARKS
FULTON         CLOUDY    22   8  55 SW13G24   29.98F WCI  10
SYRACUSE       CLOUDY    20   9  62 SW15G23   30.00F WCI   6
ROME           CLOUDY    19   5  54 SW12      30.04F WCI   7
ELMIRA         CLOUDY    20   4  50 SW21G26   30.01F WCI   4
BINGHAMTON     CLOUDY    16   3  56 SW12      29.96F WCI   3
MONTICELLO     CLOUDY    16   1  53 W9        30.04F WCI   4
$$

NYZ026>034-041>043-121800-
NORTH


CITY           SKY/WX    TMP DP  RH WIND       PRES   REMARKS
WATERTOWN      CLOUDY    20  11  68 S16G26    29.94F HAZE    WCI   6
FORT DRUM      NOT AVBL
MASSENA        SUNNY     19   8  62 S15       29.95F WCI   5
SARANAC LAKE   LGT SNOW  11   5  77 SW14      29.85F VSB 1   WCI  -5
PLATTSBURGH    MOSUNNY   14   1  56 S10       30.00F WCI   1
$$

NYZ001>004-010>016-019>021-121800-
WEST


CITY           SKY/WX    TMP DP  RH WIND       PRES   REMARKS
NIAGARA FALLS  CLOUDY    26  11  52 W17G29    29.94F WCI  13
BUFFALO        SNOW      19  14  81 SW16      29.95F VSB 1/2 WCI   4
DUNKIRK        CLOUDY    20   8  60 SW20      29.99F WCI   4
JAMESTOWN      PTSUNNY   16   1  53 SW12      29.93F WCI   3
WELLSVILLE     CLOUDY    15   3  59 SW15G24   29.91F WCI   0
ROCHESTER      MIX PCPN  23  11  60 SW20      29.97F WCI   8
PENN YAN       CLOUDY    22   5  48 SW17G24   29.97F WCI   8
$$

             KEY
       WCI = WIND CHILL INDEX
       VSB = VISIBILITY
       HX  = HEAT INDEX
$$



USA.gov is the U.S. government's official web portal to all federal, state and local government web resources and services.